Flugplatz Burg Feuerstein
 
.... wo jeder bestens aufgehoben ist! 

 

DSC04520

 


Täglich sind wir von 08.30 bis 12.30 Uhr und von 13.00 bis 16.45 Uhr unter 09194 - 79 75 75 

oder 

rund um die Uhr per Diese E-Mail-Adresse ist vor Spambots geschützt! Zur Anzeige muss JavaScript eingeschaltet sein! zu erreichen!

 

Flugbetrieb an jedem fliegbaren Tag von 9 Uhr bis 18 Uhr - nach Absprache auch flexibel darüber hinaus ! 

 


 
 

Wir bieten professionelle und trotzdem sehr günstige Ausbildung in 4 Sparten an:

Motorflug Motorsegler Segelflug Ultraleicht

Bei unseren Gebühren gibt keine „versteckten Kosten“ wie

  • Baustunden oder finanzielle Ausgleiche dafür
  • Verpflichtung zu Diensten oder finanzielle Ausgleiche dafür
  • Umschulungs- oder Typengebühren

Ebenso gibt es bei uns keinerlei zeitlicher Verpflichtungen zur Teilnahme am Flugbetrieb!

Kümmern Sie sich nur um Ihre fliegerischen Ambitionen – den Rest machen wir!

Feuerstein News Ticker

Webcam Blick N

webcam 2

Webcam Blick NO

webcam 1

METAR EDDN

[Quelle: ADDS]
METAR
EDDN 211850Z 10007KT CAVOK 06/02 Q1027 NOSIG =
EDDN 211700Z 2118/2218 10004KT CAVOK BECMG 2208/2210 33005KT
TAF
EDDN 211700Z 2118/2218 10004KT CAVOK BECMG 2208/2210 33005KT =
SR / SS: 05:47 / 16:12 UTC (EDQE 2018-10-21)

Wetter EDQE


Das Wetter heute
Das Wetter morgen